Location: Davidschlag
(48.4333°N, 14.2833°E)
Time: 04:54:29
(UTC+00:00)

NOSS 3-2 (A) - Pass Details

Date: 27 February 2020
Orbit: 807 x 1401 km, 63.4° (Epoch: 25 February)

Event Time Altitude Azimuth Distance (km) Brightness Sun altitude
Rises 18:57:46 0° 318° (NW) 3,921 7.5 -23.0°
Reaches altitude 10° 19:00:18 10° 319° (NW) 3,041 6.8 -23.4°
Maximum altitude 19:07:44 86° 49° (NE) 1,270 3.9 -24.6°
Enters shadow 19:10:57 42° 135° (SE) 1,786 4.4 -25.1°
